Location: Nasgenstadt
(48.2786°N, 9.7553°E)
Time: 20:35:37
(UTC+01:00)

N. Korean satellite - Visible Passes

Search period start: 17 February 2018 00:00
Search period end: 27 February 2018 00:00
Orbit: 459 x 514 km, 97.2° (Epoch: 17 February)

Date Brightness Start Highest point End Pass type
(mag) Time Alt. Az. Time Alt. Az. Time Alt. Az.
17 Feb 9.5 06:21:01 10° NE 06:23:56 22° E 06:26:53 10° SSE visible
17 Feb 8.0 18:33:45 10° S 18:37:01 41° W 18:40:20 10° NNW visible
18 Feb 10.3 05:58:19 10° ENE 06:00:01 13° E 06:01:43 10° ESE visible
19 Feb 10.2 19:21:49 10° WSW 19:23:21 12° W 19:24:54 10° WNW visible
20 Feb 8.3 06:42:53 10° NNE 06:46:21 40° E 06:49:50 10° S visible
20 Feb 9.3 18:56:37 10° SSW 18:59:24 23° W 19:02:14 10° NW visible
21 Feb 9.6 06:19:34 10° NE 06:22:29 22° E 06:25:26 10° SSE visible
21 Feb 8.0 18:32:14 10° S 18:35:32 42° W 18:38:54 10° NNW visible
22 Feb 10.4 05:56:53 10° ENE 05:58:33 13° E 06:00:14 10° ESE visible
23 Feb 10.1 19:20:09 10° WSW 19:21:50 13° W 19:23:32 10° WNW visible
24 Feb 8.4 06:41:23 10° NNE 06:44:52 39° E 06:48:23 10° SSE visible
24 Feb 9.3 18:55:02 10° SSW 18:57:53 23° W 19:00:47 10° NW visible
25 Feb 9.7 06:18:04 10° NE 06:21:00 22° E 06:23:56 10° SE visible
25 Feb 7.9 18:30:40 10° S 18:34:00 44° W 18:37:25 10° NNW visible
26 Feb 10.4 05:55:25 10° ENE 05:57:02 12° E 05:58:40 10° ESE visible
